Bigfork, MN

2:42 AM CDT on September 25, 2016 (GMT -0500)
Bigfork Municipal

Weather History for KFOZ - August, 2013

Change the Weather History Date:

Wednesday, August 21, 2013

  Actual Average (KGPZ) Record (KGPZ)
Temperature  
Mean Temperature 70 °F -  
Max Temperature 82 °F 75 °F 91 °F (1976)
Min Temperature 57 °F 52 °F 33 °F (2004)
Cooling Degree Days 4    
Growing Degree Days 20 (Base 50)    
Moisture  
Dew Point 58 °F    
Average Humidity 64    
Maximum Humidity 94    
Minimum Humidity 30    
Precipitation  
Precipitation 0.00 in - - ()
Sea Level Pressure  
Sea Level Pressure 29.93 in    
Wind  
Wind Speed 6 mph (WNW)    
Max Wind Speed 13 mph    
Max Gust Speed 17 mph    
Visibility 9 miles    
Events Rain , Thunderstorm    
Averages and records for this station are not official NWS values.
T = Trace of Precipitation, MM = Missing Value Source: NWS Daily Summary

Daily Weather History Graph

Daily Weather History Graph

Search for Another Location

Airport or City:

Trip Planner

Search our weather history database for the weather conditions in past years. The results will help you decide how hot, cold, wet, or windy it might be!

Date:

Astronomy

Aug. 21, 2013 Rise Set
Actual Time 6:18 AM CDT 8:15 PM CDT
Civil Twilight 5:45 AM CDT 8:48 PM CDT
Nautical Twilight 5:04 AM CDT 9:29 PM CDT
Astronomical Twilight 4:18 AM CDT 10:14 PM CDT
Moon 8:14 PM CDT (8/21) 7:06 AM CDT (8/21)
Length of Visible Light 15h 03m
Length of Day
13h 57m
Waxing Gibbous, 99% of the Moon is Illuminated
Aug 21
Waxing Gibbous
Aug 28
Last Quarter
Sep 5
New
Sep 12
First Quarter
Sep 19
Full

Hourly Weather History & Observations

Time (CDT) Temp. Heat Index Dew Point Humidity Pressure Visibility Wind Dir Wind Speed Gust Speed Precip Events Conditions
12:13 AM 75.2 °F - 69.8 °F 83% 29.77 in 10.0 mi South 10.4 mph - N/A   Clear
12:33 AM 75.2 °F - 69.8 °F 83% 29.77 in 10.0 mi South 9.2 mph - N/A   Clear
12:53 AM 75.2 °F - 69.8 °F 83% 29.77 in 10.0 mi SSW 9.2 mph - N/A   Scattered Clouds
1:13 AM 75.2 °F - 71.6 °F 89% 29.77 in 10.0 mi SSW 8.1 mph - N/A Rain Light Rain
1:33 AM 75.2 °F - 71.6 °F 89% 29.76 in 5.0 mi South 12.7 mph 16.1 mph N/A Rain , Thunderstorm Heavy Thunderstorms and Rain
1:53 AM 75.2 °F - 71.6 °F 89% 29.78 in 5.0 mi SSW 9.2 mph - N/A Thunderstorm Scattered Clouds
2:13 AM 73.4 °F - 71.6 °F 94% 29.80 in 5.0 mi SSW 10.4 mph - N/A Thunderstorm Scattered Clouds
2:33 AM 75.2 °F - 71.6 °F 89% 29.79 in 7.0 mi SSW 10.4 mph - N/A Thunderstorm Scattered Clouds
2:53 AM 75.2 °F - 71.6 °F 89% 29.78 in 7.0 mi South 9.2 mph - N/A   Mostly Cloudy
3:13 AM 75.2 °F - 71.6 °F 89% 29.81 in 4.0 mi SW 4.6 mph - N/A Rain , Thunderstorm Heavy Thunderstorms and Rain
3:33 AM 75.2 °F - 71.6 °F 89% 29.82 in 5.0 mi SSW 5.8 mph - N/A Rain , Thunderstorm Light Thunderstorms and Rain
3:53 AM 73.4 °F - 69.8 °F 88% 29.79 in 10.0 mi WSW 3.5 mph - N/A Thunderstorm Scattered Clouds
4:13 AM 71.6 °F - 68.0 °F 88% 29.78 in 10.0 mi Calm Calm - N/A Thunderstorm Clear
4:33 AM 71.6 °F - 68.0 °F 88% 29.77 in 7.0 mi Calm Calm - N/A   Clear
4:53 AM 69.8 °F - 66.2 °F 88% 29.82 in 5.0 mi South 10.4 mph - N/A   Clear
5:13 AM 69.8 °F - 64.4 °F 83% 29.82 in 10.0 mi SW 5.8 mph - N/A   Clear
5:33 AM 69.8 °F - 64.4 °F 83% 29.83 in 10.0 mi WSW 3.5 mph - N/A   Scattered Clouds
5:53 AM 69.8 °F - 64.4 °F 83% 29.84 in 10.0 mi Calm Calm - N/A   Mostly Cloudy
6:13 AM 68.0 °F - 64.4 °F 88% 29.85 in 10.0 mi SW 3.5 mph - N/A   Scattered Clouds
6:33 AM 66.2 °F - 64.4 °F 94% 29.86 in 10.0 mi Calm Calm - N/A   Clear
6:53 AM 66.2 °F - 64.4 °F 94% 29.87 in 10.0 mi NW 4.6 mph - N/A   Clear
7:13 AM 66.2 °F - 62.6 °F 88% 29.88 in 10.0 mi NNW 4.6 mph - N/A   Clear
7:33 AM 66.2 °F - 62.6 °F 88% 29.89 in 10.0 mi NW 3.5 mph - N/A   Clear
7:53 AM 64.4 °F - 62.6 °F 94% 29.90 in 10.0 mi NW 4.6 mph - N/A   Clear
8:13 AM 64.4 °F - 60.8 °F 88% 29.91 in 10.0 mi NW 3.5 mph - N/A   Clear
8:33 AM 66.2 °F - 60.8 °F 83% 29.91 in 10.0 mi Calm Calm - N/A   Clear
8:53 AM 68.0 °F - 60.8 °F 78% 29.92 in 10.0 mi NNW 4.6 mph - N/A   Clear
9:13 AM 69.8 °F - 60.8 °F 73% 29.92 in 10.0 mi Calm Calm - N/A   Clear
9:33 AM 69.8 °F - 60.8 °F 73% 29.92 in 10.0 mi NNW 6.9 mph - N/A   Clear
9:53 AM 71.6 °F - 60.8 °F 69% 29.92 in 10.0 mi North 4.6 mph - N/A   Clear
10:13 AM 73.4 °F - 60.8 °F 65% 29.93 in 10.0 mi North 6.9 mph - N/A   Clear
10:33 AM 73.4 °F - 57.2 °F 57% 29.94 in 10.0 mi North 6.9 mph - N/A   Clear
10:53 AM 75.2 °F - 57.2 °F 53% 29.94 in 10.0 mi North 6.9 mph - N/A   Clear
11:13 AM 75.2 °F - 55.4 °F 50% 29.95 in 10.0 mi North 6.9 mph - N/A   Clear
11:33 AM 75.2 °F - 51.8 °F 44% 29.96 in 10.0 mi North 8.1 mph - N/A   Clear
11:53 AM 77.0 °F - 55.4 °F 47% 29.97 in 10.0 mi NW 5.8 mph - N/A   Clear
12:13 PM 78.8 °F - 55.4 °F 44% 29.97 in 10.0 mi NNW 5.8 mph - N/A   Clear
12:33 PM 78.8 °F - 51.8 °F 39% 29.98 in 10.0 mi North 5.8 mph - N/A   Clear
12:53 PM 78.8 °F - 53.6 °F 42% 29.98 in 10.0 mi North 10.4 mph 17.3 mph N/A   Clear
1:13 PM 78.8 °F - 53.6 °F 42% 29.99 in 10.0 mi North 8.1 mph - N/A   Scattered Clouds
1:33 PM 80.6 °F 80.3 °F 53.6 °F 39% 29.99 in 10.0 mi NNW 3.5 mph - N/A   Clear
1:53 PM 80.6 °F 80.3 °F 53.6 °F 39% 29.98 in 10.0 mi West 8.1 mph - N/A   Clear
2:13 PM 82.4 °F - 51.8 °F 35% 29.99 in 10.0 mi WNW 3.5 mph - N/A   Clear
2:33 PM 82.4 °F - 50.0 °F 32% 29.99 in 10.0 mi NNW 6.9 mph - N/A   Clear
2:53 PM 82.4 °F - 51.8 °F 35% 29.99 in 10.0 mi NW 4.6 mph - N/A   Clear
3:12 PM 82.4 °F - 50.0 °F 32% 29.99 in 10.0 mi WNW 5.8 mph - N/A   Clear
3:33 PM 82.4 °F - 50.0 °F 32% 29.99 in 10.0 mi WNW 5.8 mph - N/A   Clear
3:53 PM 82.4 °F - 48.2 °F 30% 29.99 in 10.0 mi NNW 3.5 mph - N/A   Clear
4:13 PM 82.4 °F - 48.2 °F 30% 29.99 in 10.0 mi NW 4.6 mph - N/A   Clear
4:33 PM 80.6 °F - 48.2 °F 32% 29.98 in 10.0 mi NNW 6.9 mph - N/A   Clear
4:53 PM 80.6 °F - 48.2 °F 32% 29.98 in 10.0 mi NNW 6.9 mph - N/A   Clear
5:13 PM 80.6 °F - 48.2 °F 32% 29.98 in 10.0 mi WNW 4.6 mph - N/A   Clear
5:33 PM 80.6 °F - 48.2 °F 32% 29.98 in 10.0 mi WNW 5.8 mph - N/A   Clear
5:53 PM 80.6 °F - 50.0 °F 34% 29.99 in 10.0 mi West 4.6 mph - N/A   Clear
6:13 PM 78.8 °F - 50.0 °F 36% 29.99 in 10.0 mi WNW 8.1 mph - N/A   Clear
6:33 PM 78.8 °F - 50.0 °F 36% 30.00 in 10.0 mi WNW 4.6 mph - N/A   Clear
6:53 PM 77.0 °F - 50.0 °F 39% 30.00 in 10.0 mi WNW 5.8 mph - N/A   Clear
7:13 PM 75.2 °F - 51.8 °F 44% 30.00 in 10.0 mi Calm Calm - N/A   Clear
7:33 PM 73.4 °F - 51.8 °F 47% 30.01 in 10.0 mi West 4.6 mph - N/A   Clear
7:53 PM 71.6 °F - 51.8 °F 50% 30.02 in 10.0 mi Calm Calm - N/A   Clear
8:13 PM 69.8 °F - 51.8 °F 53% 30.03 in 10.0 mi Calm Calm - N/A   Clear
8:33 PM 66.2 °F - 51.8 °F 60% 30.03 in 10.0 mi Calm Calm - N/A   Clear
8:53 PM 64.4 °F - 51.8 °F 64% 30.04 in 10.0 mi Calm Calm - N/A   Clear
9:13 PM 60.8 °F - 51.8 °F 72% 30.05 in 10.0 mi Calm Calm - N/A   Clear
9:33 PM 60.8 °F - 51.8 °F 72% 30.06 in 10.0 mi Calm Calm - N/A   Clear
9:53 PM 59.0 °F - 51.8 °F 77% 30.07 in 10.0 mi Calm Calm - N/A   Clear
10:13 PM 57.2 °F - 51.8 °F 82% 30.07 in 10.0 mi Calm Calm - N/A   Clear
10:33 PM 57.2 °F - 51.8 °F 82% 30.07 in 10.0 mi Calm Calm - N/A   Clear
10:53 PM 57.2 °F - 48.2 °F 72% 30.08 in 10.0 mi Calm Calm - N/A   Scattered Clouds
11:13 PM 57.2 °F - 48.2 °F 72% 30.08 in 10.0 mi Calm Calm - N/A   Scattered Clouds
11:33 PM 57.2 °F - 48.2 °F 72% 30.09 in 10.0 mi Calm Calm - N/A   Scattered Clouds
11:53 PM 62.6 °F - 46.4 °F 55% 30.09 in 10.0 mi Calm Calm - N/A   Mostly Cloudy